Regional Weather Roundup
Issued by NWS

Home | Current Version | Previous Version | Graphics & Text | Print | Product List | Glossary On
Versions: 1 2 3 4 5 6 7 8 9 10 11 12 13 14 15 16 17 18 19 20 21 22 23 24 25 26 27 28 29 30 31 32 33 34 35 36 37 38 39 40 41 42 43 44 45 46 47 48 49 50
000
ASUS43 KLOT 101210
RWRIL

ILLINOIS REGIONAL WEATHER ROUNDUP
NATIONAL WEATHER SERVICE CHICAGO/ROMEOVILLE IL
700 AM CDT THU JUL 10 2014

NOTE: "FAIR" INDICATES FEW OR NO CLOUDS BELOW 12,000 FEET WITH NO
SIGNIFICANT WEATHER AND/OR OBSTRUCTIONS TO VISIBILITY.

* THESE STATIONS ARE NOT UNDER NWS QUALITY CONTROL. THEY ALSO MAY NOT
  REPORT WEATHER SUCH AS PRECIPITATION OR FOG.

ILZ001-002-007-009-015-016-024-101300-
NORTHWEST ILLINOIS

CITY           SKY/WX    TMP DP  RH WIND       PRES   REMARKS
MOLINE         FAIR      61  57  87 E3        30.11R
6HR MIN TEMP:  57; 6HR MAX TEMP:  65;

STERLING*      FAIR      61  55  82 E3        30.14R
SAVANNA*       PTSUNNY   64  57  80 SE5       30.13R
$$

ILZ003-004-008-010-011-017-018-101300-
NORTH CENTRAL ILLINOIS

CITY           SKY/WX    TMP DP  RH WIND       PRES   REMARKS
ROCKFORD       FAIR      59  55  87 CALM      30.15F
6HR MIN TEMP:  54; 6HR MAX TEMP:  60;

FREEPORT*      FAIR      56  54  93 E3        30.16R
ROCHELLE*      FAIR      59  55  89 E3        30.14S
DE KALB*       FAIR      60  56  87 CALM      30.15R
PERU*          FAIR      60  56  88 CALM      30.14R
$$

ILZ005-006-012>014-019>023-101300-
NORTHEAST ILLINOIS

CITY           SKY/WX    TMP DP  RH WIND       PRES   REMARKS
CHICAGO-OHARE  FAIR      65  56  72 CALM      30.14R
6HR MIN TEMP:  60; 6HR MAX TEMP:  65;

CHICAGO-MIDWAY FAIR      67  61  81 CALM      30.13R
6HR MIN TEMP:  63; 6HR MAX TEMP:  68;

AURORA         FAIR      59  54  83 CALM      30.14R
6HR MIN TEMP:  53; 6HR MAX TEMP:  59;

LANSING*       FAIR      60  58  93 CALM      30.14R
JOLIET*        FAIR      62  59  90 CALM      30.14S
WAUKEGAN       FAIR      61  57  87 CALM      30.14R
6HR MIN TEMP:  53; 6HR MAX TEMP:  61;

DUPAGE AIRPORT FAIR      62  56  80 CALM      30.13S
6HR MIN TEMP:  55; 6HR MAX TEMP:  62;

KANKAKEE*      FAIR      59  59  97 CALM      30.14S
WHEELING       FAIR      63  58  83 CALM      30.15R
6HR MIN TEMP:  58; 6HR MAX TEMP:  63;

MORRIS*        FAIR      59  58  94 CALM      30.13R
ROMEOVILLE*    FAIR      62  60  96 CALM      30.14R
NORTHERLY ISL    N/A     65  59  81 N2          N/A
$$

LMZ740>746-101300-
SOUTHERN LAKE MICHIGAN

STATION/POSITION SKY/WX   TEMP    WIND        PRES    VSBY  WAVE
                          AIR SEA DIR/SP/G                  HT/PER
                          (F)     (DEG/KT/KT) (MB)    (MI)  (FT/S)
SOUTHERN BUOY              57 55   40/  6/  6 1021.2R         0
WAUKEGAN HARBOR            62     360/  3/  4 1022.0R
HARRISON CRIB              65      60/  6/  7   N/A
BURNHAM HARBOR             66     350/  2/  5   N/A
CALUMET HARBOR             66     290/  1/  2 1021.4R
MICHIGAN CITY              62     100/  3/  3   N/A
$$

ILZ025>027-034>036-040-047-049-050-058-095>099-101300-
WEST-CENTRAL ILLINOIS

CITY           SKY/WX    TMP DP  RH WIND       PRES   REMARKS
QUINCY         FAIR      64  56  75 S3        30.12R
GALESBURG*     FAIR      60  60 100 E3        30.12R
MACOMB*        FAIR      57  57  99 CALM      30.14R
JACKSONVILLE*  FAIR      62  59  91 CALM      30.13R
PITTSFIELD*    FAIR      60  57  89 CALM      30.14R
$$

ILZ028>032-037-038-041>044-048-051>054-059>061-101300-
CENTRAL ILLINOIS

CITY           SKY/WX    TMP DP  RH WIND       PRES   REMARKS
PONTIAC        FAIR      61  59  94 CALM      30.13R
BLOOMINGTON    FAIR      60  55  83 E5        30.14R
DECATUR        FAIR      61  57  87 CALM      30.13R
PEORIA         FAIR      65  58  78 NE3       30.13R
6HR MIN TEMP:  60; 6HR MAX TEMP:  65;

LACON*         FAIR      59  55  86 CALM      30.12R
LINCOLN*       FAIR      61  57  87 CALM      30.10R
SPRINGFIELD    FAIR      62  58  86 CALM      30.13R
6HR MIN TEMP:  57; 6HR MAX TEMP:  62;

TAYLORVILLE    FAIR      57  55  94 CALM      30.12R
$$

ILZ033-039-045-046-055>057-062-063-101300-
EAST-CENTRAL ILLINOIS

CITY           SKY/WX    TMP DP  RH WIND       PRES   REMARKS
CHAMPAIGN      FAIR      64  57  78 NE9       30.13R
RANTOUL*       FAIR      65  55  71 NE3       30.14R
MATTOON          N/A     60  56  86 CALM      30.11R
PARIS*         FAIR      62  59  92 NE3       30.12R
$$

ILZ079-100>102-101300-
SOUTHWEST ILLINOIS

CITY           SKY/WX    TMP DP  RH WIND       PRES   REMARKS
ALTON          SUNNY     63  63 100 N6        30.12R
BELLEVILLE     SUNNY     63  62  97 N2        30.11R
CAHOKIA*       FAIR      64  61  90 CALM      30.11R
SPARTA*        FAIR      63  59  88 CALM      30.11R
$$

ILZ064>066-069>071-074>076-080>082-084>086-088>090-092>094-101300-
SOUTH-CENTRAL ILLINOIS

CITY           SKY/WX    TMP DP  RH WIND       PRES   REMARKS
CARBONDALE     FAIR      65  62  90 CALM      30.10R
6HR MIN TEMP:  63; 6HR MAX TEMP:  69;

CAIRO*         FAIR      72  64  78 CALM      30.08R
MARION         MOSUNNY   64  63  94 N6        30.10R
MT. VERNON     FAIR      63  57  82 N3        30.11R
CENTRALIA*     FAIR      78  62  56 CALM      30.11R HX  80
SALEM*         FAIR      66  61  84 CALM      30.11R
METROPOLIS*    FAIR      68  64  85 CALM      30.07R
$$

ILZ067-068-072-073-078-083-087-091-101300-
SOUTHEAST ILLINOIS

CITY           SKY/WX    TMP DP  RH WIND       PRES   REMARKS
FLORA*         FAIR      63  59  88 CALM      30.10R
HARRISBURG*    FAIR      66  63  90 CALM      30.09R
ROBINSON*      FAIR      64  62  93 CALM      30.11R
CARMI*         FAIR      65  64  97 N3        30.08R
$$

ABBREVIATIONS USED IN REMARKS
   TC - TEMPERATURE IN CELSIUS
  WCI - WIND CHILL INDEX
   HX - HEAT INDEX
  VSB - VISIBILITY
$$



USA.gov is the U.S. government's official web portal to all federal, state and local government web resources and services.